This is the latest recevied weather packets stored in our database for station/object OE1HTB-13. If no packets are shown the sender has not sent any weather packets the latest 10 day(s).
| Time | Temp. | Humidity | Pressure | Rain* | Wind** | Luminosity | Snow |
|---|---|---|---|---|---|---|---|
| 1777660274 | 13.33° C | 59% | 1024.9 hPa | 0 mm | - | 0 W/m² | - |
| 1777659373 | 13.33° C | 58% | 1024.7 hPa | 0 mm | - | 0 W/m² | - |
| 1777658473 | 13.89° C | 57% | 1024.7 hPa | 0 mm | - | 5 W/m² | - |
| 1777657573 | 13.89° C | 58% | 1024.6 hPa | 0 mm | - | 11 W/m² | - |
| 1777656673 | 14.44° C | 57% | 1024.5 hPa | 0 mm | - | 14 W/m² | - |
| 1777655773 | 15° C | 56% | 1024.5 hPa | 0 mm | - | 18 W/m² | - |
| 1777654872 | 15.56° C | 53% | 1024.6 hPa | 0 mm | - | 21 W/m² | - |
| 1777653973 | 16.67° C | 51% | 1024.6 hPa | 0 mm | - | 25 W/m² | - |
| 1777653072 | 17.22° C | 47% | 1024.6 hPa | 0 mm | - | 26 W/m² | - |
| 1777652172 | 17.78° C | 47% | 1024.7 hPa | 0 mm | - | 39 W/m² | - |
| 1777651272 | 18.33° C | 44% | 1024.9 hPa | 0 mm | - | 46 W/m² | - |
| 1777650372 | 18.33° C | 45% | 1025 hPa | 0 mm | - | 53 W/m² | - |
| 1777649472 | 18.89° C | 39% | 1025.2 hPa | 0 mm | - | 46 W/m² | - |
| 1777647672 | 20° C | 38% | 1025.5 hPa | 0 mm | - | 441 W/m² | - |
| 1777646772 | 20.56° C | 38% | 1025.6 hPa | 0 mm | - | 531 W/m² | - |
| 1777645871 | 20.56° C | 38% | 1025.7 hPa | 0 mm | - | 130 W/m² | - |
| 1777644971 | 20.56° C | 39% | 1025.8 hPa | 0 mm | - | 649 W/m² | - |
| 1777644071 | 20° C | 38% | 1025.9 hPa | 0 mm | - | 777 W/m² | - |
| 1777643171 | 20° C | 40% | 1026 hPa | 0 mm | - | 195 W/m² | - |
| 1777642272 | 20.56° C | 38% | 1026.2 hPa | 0 mm | - | 803 W/m² | - |
| 1777641370 | 20° C | 38% | 1026.4 hPa | 0 mm | - | 545 W/m² | - |
| 1777640470 | 19.44° C | 41% | 1026.5 hPa | 0 mm | - | 761 W/m² | - |
| 1777639570 | 20° C | 41% | 1026.7 hPa | 0 mm | - | 812 W/m² | - |
| 1777638670 | 19.44° C | 39% | 1026.9 hPa | 0 mm | - | 791 W/m² | - |
| 1777637770 | 19.44° C | 40% | 1027.2 hPa | 0 mm | - | 830 W/m² | - |
* Rain latest hour (hover to see other rain measurements)
** Current wind speed in m/s (hover to see current wind gust speed)